Abingdon, VA

7:30 PM EDT on September 22, 2019 (GMT -0400)
Virginia Highlands

Weather History for KVJI - June, 2019

Change the Weather History Date:

Tuesday, June 11, 2019

  Actual Average (KTRI) Record (KTRI)
Temperature  
Mean Temperature 62 °F -  
Max Temperature 71 °F 81 °F 92 °F (2011)
Min Temperature 53 °F 58 °F 41 °F (1988)
Degree Days  
Heating Degree Days 3    
Growing Degree Days 12 (Base 50)    
Moisture  
Dew Point 49 °F    
Average Humidity 61    
Maximum Humidity 86    
Minimum Humidity 34    
Precipitation  
Precipitation 0.00 in - - ()
Sea Level Pressure  
Sea Level Pressure 30.17 in    
Wind  
Wind Speed 6 mph (NE)    
Max Wind Speed 12 mph    
Max Gust Speed 20 mph    
Visibility 10 miles    
Events      
Averages and records for this station are not official NWS values.
T = Trace of Precipitation, MM = Missing Value Source: NWS Daily Summary

Daily Weather History Graph

Daily Weather History Graph

Search for Another Location

Airport or City:

Astronomy

Jun. 11, 2019 Rise Set
Actual Time 6:08 AM EDT 8:46 PM EDT
Civil Twilight 5:38 AM EDT 9:17 PM EDT
Nautical Twilight 5:00 AM EDT 9:55 PM EDT
Astronomical Twilight 4:18 AM EDT 10:37 PM EDT
Moon 2:55 PM EDT (6/11) 2:40 AM EDT (6/11)
Length of Visible Light 15h 38m
Length of Day
14h 37m
Waxing Gibbous, 66% of the Moon is Illuminated
Jun 11
Waxing Gibbous
Jun 17
Full
Jun 25
Last Quarter
Jul 2
New
Jul 9
First Quarter

Hourly Weather History & Observations

Time (EDT) Temp. Dew Point Humidity Pressure Visibility Wind Dir Wind Speed Gust Speed Precip Events Conditions
12:15 AM 66.6 °F 60.8 °F 82% 30.10 in 10.0 mi North 9.2 mph - N/A   Overcast
12:35 AM 65.7 °F 59.0 °F 79% 30.11 in 10.0 mi North 6.9 mph 18.4 mph N/A   Overcast
12:55 AM 64.8 °F 57.0 °F 76% 30.11 in 10.0 mi North 11.5 mph 19.6 mph N/A   Overcast
1:15 AM 63.5 °F 55.8 °F 76% 30.11 in 10.0 mi North 5.8 mph - N/A   Scattered Clouds
1:35 AM 62.6 °F 55.6 °F 78% 30.12 in 10.0 mi Calm Calm - N/A   Mostly Cloudy
1:55 AM 62.1 °F 55.4 °F 79% 30.12 in 10.0 mi Calm Calm - N/A   Overcast
2:15 AM 61.5 °F 54.1 °F 77% 30.12 in 10.0 mi ENE 8.1 mph - N/A   Mostly Cloudy
2:35 AM 60.6 °F 53.2 °F 77% 30.13 in 10.0 mi Calm Calm - N/A   Mostly Cloudy
2:55 AM 59.2 °F 54.9 °F 86% 30.13 in 10.0 mi NNW 3.5 mph - N/A   Mostly Cloudy
3:15 AM 59.5 °F 54.5 °F 83% 30.14 in 10.0 mi Calm Calm - N/A   Overcast
3:35 AM 59.2 °F 54.5 °F 84% 30.14 in 10.0 mi North 3.5 mph - N/A   Overcast
3:55 AM 58.5 °F 50.4 °F 74% 30.15 in 10.0 mi NNE 3.5 mph - N/A   Mostly Cloudy
4:15 AM 57.9 °F 48.4 °F 71% 30.15 in 10.0 mi ENE 8.1 mph - N/A   Scattered Clouds
4:35 AM 57.2 °F 48.4 °F 72% 30.15 in 10.0 mi ENE 8.1 mph - N/A   Clear
4:55 AM 56.7 °F 48.2 °F 73% 30.15 in 10.0 mi NE 5.8 mph - N/A   Clear
5:15 AM 55.8 °F 48.2 °F 76% 30.15 in 10.0 mi Calm Calm - N/A   Clear
5:35 AM 55.4 °F 47.3 °F 74% 30.16 in 10.0 mi NE 4.6 mph - N/A   Clear
5:55 AM 54.7 °F 47.1 °F 76% 30.17 in 10.0 mi ENE 3.5 mph - N/A   Clear
6:15 AM 54.1 °F 46.8 °F 76% 30.18 in 10.0 mi Calm Calm - N/A   Clear
6:35 AM 53.8 °F 47.3 °F 79% 30.18 in 10.0 mi ENE 3.5 mph - N/A   Clear
6:55 AM 54.9 °F 47.1 °F 75% 30.19 in 10.0 mi Calm Calm - N/A   Clear
7:15 AM 55.2 °F 48.6 °F 78% 30.19 in 10.0 mi Calm Calm - N/A   Mostly Cloudy
7:35 AM 56.3 °F 47.7 °F 73% 30.19 in 10.0 mi ENE 4.6 mph - N/A   Scattered Clouds
7:55 AM 56.3 °F 46.2 °F 69% 30.19 in 10.0 mi NE 6.9 mph - N/A   Clear
8:15 AM 57.6 °F 46.4 °F 66% 30.21 in 10.0 mi North 3.5 mph - N/A   Clear
8:35 AM 58.1 °F 46.4 °F 65% 30.21 in 10.0 mi NNE 3.5 mph - N/A   Clear
8:55 AM 58.5 °F 46.9 °F 66% 30.21 in 10.0 mi ENE 5.8 mph - N/A   Clear
9:15 AM 59.2 °F 47.1 °F 64% 30.22 in 10.0 mi East 5.8 mph - N/A   Clear
9:35 AM 60.1 °F 47.3 °F 63% 30.22 in 10.0 mi NNW 3.5 mph - N/A   Clear
9:55 AM 60.3 °F 47.3 °F 62% 30.22 in 10.0 mi ENE 3.5 mph - N/A   Clear
10:15 AM 60.4 °F 46.9 °F 61% 30.23 in 10.0 mi NNW 5.8 mph - N/A   Clear
10:35 AM 62.1 °F 48.4 °F 61% 30.22 in 10.0 mi East 8.1 mph - N/A   Clear
10:55 AM 62.6 °F 46.8 °F 56% 30.22 in 10.0 mi North 4.6 mph - N/A   Clear
11:15 AM 63.1 °F 46.4 °F 54% 30.22 in 10.0 mi East 5.8 mph - N/A   Clear
11:35 AM 63.9 °F 47.1 °F 54% 30.22 in 10.0 mi Calm Calm - N/A   Clear
11:55 AM 64.9 °F 47.5 °F 53% 30.22 in 10.0 mi NNE 3.5 mph - N/A   Clear
12:15 PM 65.7 °F 46.0 °F 49% 30.21 in 10.0 mi East 5.8 mph - N/A   Clear
12:35 PM 67.3 °F 46.4 °F 47% 30.21 in 10.0 mi ENE 4.6 mph - N/A   Clear
12:55 PM 67.8 °F 45.7 °F 45% 30.20 in 10.0 mi ENE 9.2 mph - N/A   Clear
1:15 PM 68.7 °F 46.4 °F 45% 30.20 in 10.0 mi ENE 5.8 mph - N/A   Clear
1:35 PM 69.8 °F 44.1 °F 39% 30.19 in 10.0 mi ENE 6.9 mph - N/A   Clear
1:55 PM 70.2 °F 40.8 °F 34% 30.19 in 10.0 mi ENE 6.9 mph - N/A   Clear
2:15 PM 69.8 °F 42.6 °F 37% 30.18 in 10.0 mi North 6.9 mph - N/A   Clear
2:35 PM 69.8 °F 43.9 °F 39% 30.17 in 10.0 mi ENE 5.8 mph - N/A   Clear
2:55 PM 69.8 °F 44.1 °F 39% 30.16 in 10.0 mi NNE 5.8 mph - N/A   Clear
3:15 PM 69.3 °F 45.3 °F 42% 30.17 in 10.0 mi NNE 5.8 mph - N/A   Clear
3:35 PM 70.5 °F 46.4 °F 42% 30.17 in 10.0 mi NNE 5.8 mph - N/A   Clear
3:55 PM 70.7 °F 46.4 °F 42% 30.16 in 10.0 mi NE 6.9 mph - N/A   Clear
4:15 PM 70.2 °F 45.0 °F 40% 30.16 in 10.0 mi NE 5.8 mph - N/A   Clear
4:35 PM 71.1 °F 46.4 °F 41% 30.16 in 10.0 mi East 8.1 mph - N/A   Clear
4:55 PM 70.5 °F 46.0 °F 42% 30.16 in 10.0 mi NE 4.6 mph - N/A   Clear
5:20 PM 70.0 °F 46.6 °F 43% 30.15 in 10.0 mi East 5.8 mph - N/A   Clear
5:35 PM 70.7 °F 47.8 °F 44% 30.14 in 10.0 mi ENE 8.1 mph - N/A   Clear
5:55 PM 68.9 °F 48.4 °F 48% 30.14 in 10.0 mi ENE 6.9 mph - N/A   Clear
6:15 PM 68.0 °F 46.9 °F 47% 30.14 in 10.0 mi ENE 8.1 mph - N/A   Clear
6:35 PM 67.3 °F 48.7 °F 51% 30.13 in 10.0 mi NE 3.5 mph - N/A   Clear
6:55 PM 67.8 °F 49.5 °F 52% 30.14 in 10.0 mi NE 4.6 mph - N/A   Clear
7:15 PM 66.7 °F 48.4 °F 52% 30.13 in 10.0 mi ENE 8.1 mph - N/A   Clear
7:35 PM 66.2 °F 48.7 °F 53% 30.14 in 10.0 mi ENE 10.4 mph - N/A   Clear
7:55 PM 65.3 °F 48.7 °F 55% 30.14 in 10.0 mi ENE 6.9 mph - N/A   Clear
8:15 PM 64.6 °F 48.9 °F 57% 30.14 in 10.0 mi ENE 5.8 mph - N/A   Clear
8:35 PM 63.0 °F 49.6 °F 62% 30.15 in 10.0 mi East 6.9 mph - N/A   Clear
8:55 PM 62.4 °F 49.5 °F 63% 30.15 in 10.0 mi East 9.2 mph - N/A   Clear
9:15 PM 61.0 °F 49.1 °F 65% 30.15 in 10.0 mi East 10.4 mph - N/A   Clear
9:35 PM 61.9 °F 48.4 °F 61% 30.15 in 10.0 mi East 10.4 mph - N/A   Clear
9:55 PM 60.1 °F 49.1 °F 67% 30.16 in 10.0 mi East 8.1 mph - N/A   Clear
10:15 PM 59.7 °F 49.1 °F 68% 30.16 in 10.0 mi East 8.1 mph - N/A   Clear
10:35 PM 59.0 °F 49.1 °F 70% 30.16 in 10.0 mi East 9.2 mph - N/A   Clear
10:55 PM 59.4 °F 48.6 °F 67% 30.16 in 10.0 mi East 9.2 mph - N/A   Clear
11:15 PM 59.4 °F 48.2 °F 67% 30.16 in 10.0 mi East 8.1 mph - N/A   Clear
11:35 PM 58.3 °F 47.8 °F 68% 30.16 in 10.0 mi East 8.1 mph - N/A   Clear
11:55 PM 57.6 °F 48.0 °F 70% 30.16 in 10.0 mi East 8.1 mph - N/A   Clear